Time,TemperatureF,DewpointF,PressureIn,WindDirection,WindDirectionDegrees,WindSpeedMPH,WindSpeedGustMPH,Humidity,HourlyPrecipIn,Conditions,Clouds,dailyrainin,SolarRadiationWatts/m^2,SoftwareType,DateUTC
2013-05-25 00:02:00,51.0,12.0,-100.00,ESE,105,1.0,3.0,21,0.00,,,0.00,0.000000,,2013-05-25 06:02:00,
2013-05-25 00:12:00,51.0,12.0,-100.00,ESE,105,1.0,3.0,21,0.00,,,0.00,0.000000,,2013-05-25 06:12:00,
2013-05-25 00:21:00,51.0,12.0,-100.00,ESE,105,1.0,3.0,21,0.00,,,0.00,0.000000,,2013-05-25 06:21:00,
2013-05-25 00:42:00,47.0,14.0,-100.00,East,97,2.0,4.0,26,0.00,,,0.00,0.000000,,2013-05-25 06:42:00,
2013-05-25 00:52:00,47.0,14.0,-100.00,East,97,2.0,4.0,26,0.00,,,0.00,0.000000,,2013-05-25 06:52:00,
2013-05-25 01:01:00,47.0,14.0,-100.00,East,97,2.0,4.0,26,0.00,,,0.00,0.000000,,2013-05-25 07:01:00,
2013-05-25 01:11:00,47.0,14.0,-100.00,East,97,2.0,4.0,26,0.00,,,0.00,0.000000,,2013-05-25 07:11:00,
2013-05-25 01:21:00,47.0,14.0,-100.00,East,97,2.0,4.0,26,0.00,,,0.00,0.000000,,2013-05-25 07:21:00,
2013-05-25 01:22:00,46.0,16.0,-100.00,East,89,3.0,5.0,29,0.00,,,0.00,0.000000,,2013-05-25 07:22:00,
2013-05-25 01:42:00,46.0,16.0,-100.00,East,89,3.0,5.0,29,0.00,,,0.00,0.000000,,2013-05-25 07:42:00,
2013-05-25 01:52:00,46.0,16.0,-100.00,East,89,3.0,5.0,29,0.00,,,0.00,0.000000,,2013-05-25 07:52:00,
2013-05-25 02:02:00,46.0,16.0,-100.00,East,89,3.0,5.0,29,0.00,,,0.00,0.000000,,2013-05-25 08:02:00,
2013-05-25 02:11:00,46.0,16.0,-100.00,East,89,3.0,5.0,29,0.00,,,0.00,0.000000,,2013-05-25 08:11:00,
2013-05-25 02:42:00,43.0,15.0,-100.00,ENE,57,2.0,7.0,32,0.00,,,0.00,0.000000,,2013-05-25 08:42:00,
2013-05-25 02:52:00,43.0,15.0,-100.00,ENE,57,2.0,7.0,32,0.00,,,0.00,0.000000,,2013-05-25 08:52:00,
2013-05-25 03:02:00,43.0,15.0,-100.00,ENE,57,2.0,7.0,32,0.00,,,0.00,0.000000,,2013-05-25 09:02:00,
2013-05-25 03:11:00,43.0,15.0,-100.00,ENE,57,2.0,7.0,32,0.00,,,0.00,0.000000,,2013-05-25 09:11:00,
2013-05-25 03:21:00,43.0,15.0,-100.00,ENE,57,2.0,7.0,32,0.00,,,0.00,0.000000,,2013-05-25 09:21:00,
2013-05-25 03:22:00,43.0,15.0,-100.00,East,83,2.0,3.0,32,0.00,,,0.00,0.000000,,2013-05-25 09:22:00,
2013-05-25 03:43:00,43.0,15.0,-100.00,East,83,2.0,3.0,32,0.00,,,0.00,0.000000,,2013-05-25 09:43:00,
2013-05-25 03:53:00,43.0,15.0,-100.00,East,83,2.0,3.0,32,0.00,,,0.00,0.000000,,2013-05-25 09:53:00,
2013-05-25 04:03:00,43.0,15.0,-100.00,East,83,2.0,3.0,32,0.00,,,0.00,0.000000,,2013-05-25 10:03:00,
2013-05-25 04:12:00,43.0,15.0,-100.00,East,83,2.0,3.0,32,0.00,,,0.00,0.000000,,2013-05-25 10:12:00,
2013-05-25 04:42:00,42.0,14.0,-100.00,SSW,198,1.0,5.0,32,0.00,,,0.00,0.000000,,2013-05-25 10:42:00,
2013-05-25 04:52:00,42.0,14.0,-100.00,SSW,198,1.0,5.0,32,0.00,,,0.00,0.000000,,2013-05-25 10:52:00,
2013-05-25 05:02:00,42.0,14.0,-100.00,SSW,198,1.0,5.0,32,0.00,,,0.00,0.000000,,2013-05-25 11:02:00,
2013-05-25 05:12:00,42.0,14.0,-100.00,SSW,198,1.0,5.0,32,0.00,,,0.00,0.000000,,2013-05-25 11:12:00,
2013-05-25 05:21:00,42.0,14.0,-100.00,SSW,198,1.0,5.0,32,0.00,,,0.00,0.000000,,2013-05-25 11:21:00,
2013-05-25 05:22:00,38.0,16.0,-100.00,SSE,155,2.0,3.0,41,0.00,,,0.00,0.000000,,2013-05-25 11:22:00,
2013-05-25 05:42:00,38.0,16.0,-100.00,SSE,155,2.0,3.0,41,0.00,,,0.00,0.000000,,2013-05-25 11:42:00,
2013-05-25 05:52:00,38.0,16.0,-100.00,SSE,155,2.0,3.0,41,0.00,,,0.00,0.000000,,2013-05-25 11:52:00,
2013-05-25 06:01:00,38.0,16.0,-100.00,SSE,155,2.0,3.0,41,0.00,,,0.00,0.000000,,2013-05-25 12:01:00,
2013-05-25 06:12:00,38.0,16.0,-100.00,SSE,155,2.0,3.0,41,0.00,,,0.00,0.000000,,2013-05-25 12:12:00,
2013-05-25 06:42:00,37.0,18.0,-100.00,SW,233,1.0,4.0,46,0.00,,,0.00,7.000000,,2013-05-25 12:42:00,
2013-05-25 06:52:00,37.0,18.0,-100.00,SW,233,1.0,4.0,46,0.00,,,0.00,7.000000,,2013-05-25 12:52:00,
2013-05-25 07:02:00,37.0,18.0,-100.00,SW,233,1.0,4.0,46,0.00,,,0.00,7.000000,,2013-05-25 13:02:00,
2013-05-25 07:11:00,37.0,18.0,-100.00,SW,233,1.0,4.0,46,0.00,,,0.00,7.000000,,2013-05-25 13:11:00,
2013-05-25 07:21:00,37.0,18.0,-100.00,SW,233,1.0,4.0,46,0.00,,,0.00,7.000000,,2013-05-25 13:21:00,
2013-05-25 07:22:00,42.0,19.0,-100.00,SE,126,1.0,2.0,39,0.00,,,0.00,37.000000,,2013-05-25 13:22:00,
2013-05-25 07:42:00,42.0,19.0,-100.00,SE,126,1.0,2.0,39,0.00,,,0.00,37.000000,,2013-05-25 13:42:00,
2013-05-25 07:52:00,42.0,19.0,-100.00,SE,126,1.0,2.0,39,0.00,,,0.00,37.000000,,2013-05-25 13:52:00,
2013-05-25 08:02:00,42.0,19.0,-100.00,SE,126,1.0,2.0,39,0.00,,,0.00,37.000000,,2013-05-25 14:02:00,
2013-05-25 08:11:00,42.0,19.0,-100.00,SE,126,1.0,2.0,39,0.00,,,0.00,37.000000,,2013-05-25 14:11:00,
2013-05-25 08:22:00,48.0,25.0,-100.00,NW,306,2.0,3.0,41,0.00,,,0.00,109.000000,,2013-05-25 14:22:00,
2013-05-25 08:42:00,48.0,25.0,-100.00,NW,306,2.0,3.0,41,0.00,,,0.00,109.000000,,2013-05-25 14:42:00,
2013-05-25 08:52:00,48.0,25.0,-100.00,NW,306,2.0,3.0,41,0.00,,,0.00,109.000000,,2013-05-25 14:52:00,
2013-05-25 09:01:00,48.0,25.0,-100.00,NW,306,2.0,3.0,41,0.00,,,0.00,109.000000,,2013-05-25 15:01:00,
2013-05-25 09:11:00,48.0,25.0,-100.00,NW,306,2.0,3.0,41,0.00,,,0.00,109.000000,,2013-05-25 15:11:00,
2013-05-25 09:22:00,57.0,24.0,-100.00,WNW,283,2.0,3.0,28,0.00,,,0.00,674.000000,,2013-05-25 15:22:00,
2013-05-25 09:43:00,57.0,24.0,-100.00,WNW,283,2.0,3.0,28,0.00,,,0.00,674.000000,,2013-05-25 15:43:00,
2013-05-25 09:53:00,57.0,24.0,-100.00,WNW,283,2.0,3.0,28,0.00,,,0.00,674.000000,,2013-05-25 15:53:00,
2013-05-25 10:03:00,57.0,24.0,-100.00,WNW,283,2.0,3.0,28,0.00,,,0.00,674.000000,,2013-05-25 16:03:00,
2013-05-25 10:12:00,57.0,24.0,-100.00,WNW,283,2.0,3.0,28,0.00,,,0.00,674.000000,,2013-05-25 16:12:00,
2013-05-25 10:22:00,61.0,23.0,-100.00,WNW,300,3.0,4.0,23,0.00,,,0.00,891.000000,,2013-05-25 16:22:00,
2013-05-25 10:42:00,61.0,23.0,-100.00,WNW,300,3.0,4.0,23,0.00,,,0.00,891.000000,,2013-05-25 16:42:00,
2013-05-25 10:52:00,61.0,23.0,-100.00,WNW,300,3.0,4.0,23,0.00,,,0.00,891.000000,,2013-05-25 16:52:00,
2013-05-25 11:03:00,61.0,23.0,-100.00,WNW,300,3.0,4.0,23,0.00,,,0.00,891.000000,,2013-05-25 17:03:00,
2013-05-25 11:11:00,61.0,23.0,-100.00,WNW,300,3.0,4.0,23,0.00,,,0.00,891.000000,,2013-05-25 17:11:00,
2013-05-25 11:42:00,66.0,17.0,-100.00,NNW,327,3.0,5.0,15,0.00,,,0.00,1059.000000,,2013-05-25 17:42:00,
2013-05-25 11:52:00,66.0,17.0,-100.00,NNW,327,3.0,5.0,15,0.00,,,0.00,1059.000000,,2013-05-25 17:52:00,
2013-05-25 12:01:00,66.0,17.0,-100.00,NNW,327,3.0,5.0,15,0.00,,,0.00,1059.000000,,2013-05-25 18:01:00,
2013-05-25 12:11:00,66.0,17.0,-100.00,NNW,327,3.0,5.0,15,0.00,,,0.00,1059.000000,,2013-05-25 18:11:00,
2013-05-25 12:21:00,66.0,17.0,-100.00,NNW,327,3.0,5.0,15,0.00,,,0.00,1059.000000,,2013-05-25 18:21:00,
2013-05-25 12:42:00,69.0,14.0,-100.00,NW,307,4.0,7.0,12,0.00,,,0.00,1146.000000,,2013-05-25 18:42:00,
2013-05-25 12:52:00,69.0,14.0,-100.00,NW,307,4.0,7.0,12,0.00,,,0.00,1146.000000,,2013-05-25 18:52:00,
2013-05-25 13:01:00,69.0,14.0,-100.00,NW,307,4.0,7.0,12,0.00,,,0.00,1146.000000,,2013-05-25 19:01:00,
2013-05-25 13:11:00,69.0,14.0,-100.00,NW,307,4.0,7.0,12,0.00,,,0.00,1146.000000,,2013-05-25 19:11:00,
2013-05-25 13:21:00,69.0,14.0,-100.00,NW,307,4.0,7.0,12,0.00,,,0.00,1146.000000,,2013-05-25 19:21:00,
2013-05-25 13:42:00,70.0,9.0,-100.00,WNW,296,6.0,12.0,9,0.00,,,0.00,1051.000000,,2013-05-25 19:42:00,
2013-05-25 13:52:00,70.0,9.0,-100.00,WNW,296,6.0,12.0,9,0.00,,,0.00,1051.000000,,2013-05-25 19:52:00,
2013-05-25 14:02:00,70.0,9.0,-100.00,WNW,296,6.0,12.0,9,0.00,,,0.00,1051.000000,,2013-05-25 20:02:00,
2013-05-25 14:11:00,70.0,9.0,-100.00,WNW,296,6.0,12.0,9,0.00,,,0.00,1051.000000,,2013-05-25 20:11:00,
2013-05-25 14:21:00,70.0,9.0,-100.00,WNW,296,6.0,12.0,9,0.00,,,0.00,1051.000000,,2013-05-25 20:21:00,
2013-05-25 14:42:00,72.0,15.0,-100.00,WNW,287,5.0,14.0,11,0.00,,,0.00,1194.000000,,2013-05-25 20:42:00,
2013-05-25 14:52:00,72.0,15.0,-100.00,WNW,287,5.0,14.0,11,0.00,,,0.00,1194.000000,,2013-05-25 20:52:00,
2013-05-25 15:02:00,72.0,15.0,-100.00,WNW,287,5.0,14.0,11,0.00,,,0.00,1194.000000,,2013-05-25 21:02:00,
2013-05-25 15:11:00,72.0,15.0,-100.00,WNW,287,5.0,14.0,11,0.00,,,0.00,1194.000000,,2013-05-25 21:11:00,
2013-05-25 15:21:00,72.0,15.0,-100.00,WNW,287,5.0,14.0,11,0.00,,,0.00,1194.000000,,2013-05-25 21:21:00,
2013-05-25 15:22:00,73.0,8.0,-100.00,West,275,4.0,10.0,8,0.00,,,0.00,1142.000000,,2013-05-25 21:22:00,
2013-05-25 15:43:00,73.0,8.0,-100.00,West,275,4.0,10.0,8,0.00,,,0.00,1142.000000,,2013-05-25 21:43:00,
2013-05-25 15:53:00,73.0,8.0,-100.00,West,275,4.0,10.0,8,0.00,,,0.00,1142.000000,,2013-05-25 21:53:00,
2013-05-25 16:03:00,73.0,8.0,-100.00,West,275,4.0,10.0,8,0.00,,,0.00,1142.000000,,2013-05-25 22:03:00,
2013-05-25 16:12:00,73.0,8.0,-100.00,West,275,4.0,10.0,8,0.00,,,0.00,1142.000000,,2013-05-25 22:12:00,
2013-05-25 16:22:00,69.0,10.0,-100.00,WNW,292,3.0,8.0,10,0.00,,,0.00,636.000000,,2013-05-25 22:22:00,
2013-05-25 16:42:00,69.0,10.0,-100.00,WNW,292,3.0,8.0,10,0.00,,,0.00,636.000000,,2013-05-25 22:42:00,
2013-05-25 16:52:00,69.0,10.0,-100.00,WNW,292,3.0,8.0,10,0.00,,,0.00,636.000000,,2013-05-25 22:52:00,
2013-05-25 17:02:00,69.0,10.0,-100.00,WNW,292,3.0,8.0,10,0.00,,,0.00,636.000000,,2013-05-25 23:02:00,
2013-05-25 17:12:00,69.0,10.0,-100.00,WNW,292,3.0,8.0,10,0.00,,,0.00,636.000000,,2013-05-25 23:12:00,
2013-05-25 17:42:00,68.0,12.0,-100.00,WNW,301,2.0,10.0,11,0.00,,,0.00,333.000000,,2013-05-25 23:42:00,
2013-05-25 17:52:00,68.0,12.0,-100.00,WNW,301,2.0,10.0,11,0.00,,,0.00,333.000000,,2013-05-25 23:52:00,
2013-05-25 18:01:00,68.0,12.0,-100.00,WNW,301,2.0,10.0,11,0.00,,,0.00,333.000000,,2013-05-26 00:01:00,
2013-05-25 18:11:00,68.0,12.0,-100.00,WNW,301,2.0,10.0,11,0.00,,,0.00,333.000000,,2013-05-26 00:11:00,
2013-05-25 18:21:00,68.0,12.0,-100.00,WNW,301,2.0,10.0,11,0.00,,,0.00,333.000000,,2013-05-26 00:21:00,
2013-05-25 18:43:00,70.0,13.0,-100.00,WNW,288,4.0,8.0,11,0.00,,,0.00,284.000000,,2013-05-26 00:43:00,
2013-05-25 18:53:00,70.0,13.0,-100.00,WNW,288,4.0,8.0,11,0.00,,,0.00,284.000000,,2013-05-26 00:53:00,
2013-05-25 19:01:00,70.0,13.0,-100.00,WNW,288,4.0,8.0,11,0.00,,,0.00,284.000000,,2013-05-26 01:01:00,
2013-05-25 19:11:00,70.0,13.0,-100.00,WNW,288,4.0,8.0,11,0.00,,,0.00,284.000000,,2013-05-26 01:11:00,
2013-05-25 19:21:00,70.0,13.0,-100.00,WNW,288,4.0,8.0,11,0.00,,,0.00,284.000000,,2013-05-26 01:21:00,
2013-05-25 19:42:00,67.0,13.0,-100.00,WNW,284,6.0,11.0,12,0.00,,,0.00,367.000000,,2013-05-26 01:42:00,
2013-05-25 19:53:00,67.0,13.0,-100.00,WNW,284,6.0,11.0,12,0.00,,,0.00,367.000000,,2013-05-26 01:53:00,
2013-05-25 20:02:00,67.0,13.0,-100.00,WNW,284,6.0,11.0,12,0.00,,,0.00,367.000000,,2013-05-26 02:02:00,
2013-05-25 20:11:00,67.0,13.0,-100.00,WNW,284,6.0,11.0,12,0.00,,,0.00,367.000000,,2013-05-26 02:11:00,
2013-05-25 20:21:00,67.0,13.0,-100.00,WNW,284,6.0,11.0,12,0.00,,,0.00,367.000000,,2013-05-26 02:21:00,
2013-05-25 20:42:00,59.0,13.0,-100.00,West,259,5.0,9.0,16,0.00,,,0.00,53.000000,,2013-05-26 02:42:00,
2013-05-25 20:52:00,59.0,13.0,-100.00,West,259,5.0,9.0,16,0.00,,,0.00,53.000000,,2013-05-26 02:52:00,
2013-05-25 21:01:00,59.0,13.0,-100.00,West,259,5.0,9.0,16,0.00,,,0.00,53.000000,,2013-05-26 03:01:00,
2013-05-25 21:11:00,59.0,13.0,-100.00,West,259,5.0,9.0,16,0.00,,,0.00,53.000000,,2013-05-26 03:11:00,
2013-05-25 21:21:00,59.0,13.0,-100.00,West,259,5.0,9.0,16,0.00,,,0.00,53.000000,,2013-05-26 03:21:00,
2013-05-25 21:22:00,57.0,13.0,-100.00,WSW,248,3.0,8.0,17,0.00,,,0.00,0.000000,,2013-05-26 03:22:00,
2013-05-25 21:43:00,57.0,13.0,-100.00,WSW,248,3.0,8.0,17,0.00,,,0.00,0.000000,,2013-05-26 03:43:00,
2013-05-25 21:53:00,57.0,13.0,-100.00,WSW,248,3.0,8.0,17,0.00,,,0.00,0.000000,,2013-05-26 03:53:00,
2013-05-25 22:02:00,57.0,13.0,-100.00,WSW,248,3.0,8.0,17,0.00,,,0.00,0.000000,,2013-05-26 04:02:00,
2013-05-25 22:12:00,57.0,13.0,-100.00,WSW,248,3.0,8.0,17,0.00,,,0.00,0.000000,,2013-05-26 04:12:00,
2013-05-25 22:22:00,53.0,13.0,-100.00,SSW,202,2.0,5.0,20,0.00,,,0.00,0.000000,,2013-05-26 04:22:00,
2013-05-25 22:43:00,53.0,13.0,-100.00,SSW,202,2.0,5.0,20,0.00,,,0.00,0.000000,,2013-05-26 04:43:00,
2013-05-25 22:52:00,53.0,13.0,-100.00,SSW,202,2.0,5.0,20,0.00,,,0.00,0.000000,,2013-05-26 04:52:00,
2013-05-25 23:02:00,53.0,13.0,-100.00,SSW,202,2.0,5.0,20,0.00,,,0.00,0.000000,,2013-05-26 05:02:00,
2013-05-25 23:12:00,53.0,13.0,-100.00,SSW,202,2.0,5.0,20,0.00,,,0.00,0.000000,,2013-05-26 05:12:00,
2013-05-25 23:22:00,52.0,12.0,-100.00,SE,127,2.0,3.0,20,0.00,,,0.00,0.000000,,2013-05-26 05:22:00,
2013-05-25 23:42:00,52.0,12.0,-100.00,SE,127,2.0,3.0,20,0.00,,,0.00,0.000000,,2013-05-26 05:42:00,
2013-05-25 23:52:00,52.0,12.0,-100.00,SE,127,2.0,3.0,20,0.00,,,0.00,0.000000,,2013-05-26 05:52:00,